Simultaneous Nadir Overpasses (SNOs) Predictions

Prediction of SNOs between GOES-15 and FY3D Satellite Orbit:

Table of predicted SNOs for the next 14.0 days since TLE Epoch: 6/18/2021
Index Date Time (GOES-15) GOES-15 Lat,Lon FY3D Lat,Lon Distance(km) Time Diff (sec)
1 06/19/2021 10:21:43 0.03,-128.47 0.67,-131.19 311.58 80
2 06/20/2021 10:02:46 0.03,-128.46 -0.38,-126.61 210.46 80
3 06/21/2021 22:24:22 -0.02,-128.35 -0.81,-131.82 395.35 80
4 06/22/2021 22:08:05 -0.02,-128.34 0.24,-127.23 126.41 80
5 06/24/2021 10:26:52 0.01,-128.40 0.90,-132.41 456.82 80
6 06/25/2021 10:10:35 0.01,-128.38 -0.14,-127.82 64.43 80
7 06/27/2021 22:10:32 -0.01,-128.24 -0.05,-128.43 21.47 80
8 06/28/2021 21:54:15 -0.02,-128.23 0.99,-123.85 500.00 80
9 06/30/2021 10:13:02 0.01,-128.29 0.15,-129.03 83.34 80
10 07/01/2021 09:56:44 0.02,-128.27 -0.84,-124.43 437.90 80
